Weather History for KLLQ - October, 2013

Change the Weather History Date:

Thursday, October 3, 2013

  Actual Average Record
Temperature  
Mean Temperature 76 °F -  
Max Temperature 84 °F 81 °F 94 °F (1986)
Min Temperature 69 °F 53 °F 33 °F (1984)
Cooling Degree Days 12    
Growing Degree Days 26 (Base 50)    
Moisture  
Dew Point 70 °F    
Average Humidity 85    
Maximum Humidity 94    
Minimum Humidity 61    
Precipitation  
Precipitation 0.00 in - - ()
Sea Level Pressure  
Sea Level Pressure 29.99 in    
Wind  
Wind Speed 3 mph (SSE)    
Max Wind Speed 9 mph    
Max Gust Speed -    
Visibility 7 miles    
Events      
Averages and records for this station are not official NWS values.
T = Trace of Precipitation, MM = Missing Value Source: NWS Daily Summary

Daily Weather History Graph

Daily Weather History Graph

Search for Another Location

Airport or City:

Trip Planner

Search our weather history database for the weather conditions in past years. The results will help you decide how hot, cold, wet, or windy it might be!

Date:

Astronomy

Oct. 03, 2013 Rise Set
Actual Time 7:03 AM CDT 6:48 PM CDT
Civil Twilight 6:38 AM CDT 7:13 PM CDT
Nautical Twilight 6:09 AM CDT 7:41 PM CDT
Astronomical Twilight 5:40 AM CDT 8:10 PM CDT
Moon 5:39 AM CDT (10/3) 5:56 PM CDT (10/3)
Length of Visible Light 12h 35m
Length of Day
11h 45m
Waning Crescent, 2% of the Moon is Illuminated
Oct 3
Waning Crescent
Oct 4
New
Oct 11
First Quarter
Oct 18
Full
Oct 26
Last Quarter

Hourly Weather History & Observations

Time (CDT) Temp. Heat Index Dew Point Humidity Pressure Visibility Wind Dir Wind Speed Gust Speed Precip Events Conditions
12:53 AM 73.0 °F - 68.0 °F 84% 29.99 in 10.0 mi SSE 3.5 mph - N/A   Clear
1:53 AM 72.0 °F - 68.0 °F 87% 29.99 in 10.0 mi Calm Calm - N/A   Clear
2:53 AM 71.1 °F - 68.0 °F 90% 29.97 in 10.0 mi SE 3.5 mph - N/A   Clear
3:53 AM 71.1 °F - 68.0 °F 90% 29.97 in 10.0 mi Calm Calm - N/A   Clear
4:53 AM 70.0 °F - 68.0 °F 93% 29.97 in 7.0 mi SE 3.5 mph - N/A   Clear
5:53 AM 70.0 °F - 68.0 °F 93% 29.98 in 5.0 mi South 3.5 mph - N/A   Clear
6:53 AM 70.0 °F - 68.0 °F 93% 29.99 in 5.0 mi Calm Calm - N/A   Clear
7:02 AM 69.8 °F - 68.0 °F 94% 30.00 in 5.0 mi Calm Calm - N/A   Scattered Clouds
7:10 AM 69.8 °F - 68.0 °F 94% 30.00 in 4.0 mi Calm Calm - N/A   Mostly Cloudy
7:19 AM 69.8 °F - 68.0 °F 94% 30.01 in 4.0 mi Calm Calm - N/A   Mostly Cloudy
7:35 AM 69.8 °F - 68.0 °F 94% 30.01 in 1.8 mi Calm Calm - N/A   Overcast
7:53 AM 71.1 °F - 69.1 °F 93% 30.01 in 2.0 mi Calm Calm - N/A   Overcast
8:05 AM 71.6 °F - 69.8 °F 94% 30.02 in 3.0 mi Calm Calm - N/A   Overcast
8:20 AM 71.6 °F - 69.8 °F 94% 30.02 in 2.5 mi Calm Calm - N/A   Overcast
8:29 AM 71.6 °F - 69.8 °F 94% 30.02 in 4.0 mi SE 3.5 mph - N/A   Overcast
8:53 AM 72.0 °F - 70.0 °F 93% 30.02 in 2.5 mi South 3.5 mph - N/A   Overcast
9:09 AM 71.6 °F - 69.8 °F 94% 30.03 in 1.2 mi Calm Calm - N/A   Overcast
9:47 AM 73.4 °F - 71.6 °F 94% 30.04 in 3.0 mi South 5.8 mph - N/A   Overcast
9:53 AM 73.0 °F - 71.1 °F 93% 30.03 in 5.0 mi South 3.5 mph - N/A   Overcast
10:16 AM 73.4 °F - 71.6 °F 94% 30.04 in 7.0 mi SSE 4.6 mph - N/A   Overcast
10:53 AM 75.0 °F - 71.1 °F 87% 30.03 in 10.0 mi SSE 6.9 mph - N/A   Overcast
11:02 AM 75.2 °F - 71.6 °F 89% 30.03 in 10.0 mi South 8.1 mph - N/A   Overcast
11:35 AM 78.8 °F - 71.6 °F 78% 30.03 in 10.0 mi SSE 5.8 mph - N/A   Overcast
11:53 AM 78.1 °F - 70.0 °F 76% 30.02 in 10.0 mi SSE 9.2 mph - N/A   Overcast
12:03 PM 78.8 °F - 71.6 °F 78% 30.03 in 10.0 mi South 4.6 mph - N/A   Overcast
12:53 PM 80.1 °F 83.2 °F 70.0 °F 71% 30.00 in 10.0 mi SE 8.1 mph - N/A   Mostly Cloudy
1:53 PM 80.1 °F 82.9 °F 69.1 °F 69% 29.99 in 10.0 mi Variable 4.6 mph - N/A   Overcast
2:25 PM 82.4 °F 86.3 °F 69.8 °F 66% 29.98 in 10.0 mi SSW 9.2 mph - N/A   Scattered Clouds
2:53 PM 82.0 °F 85.9 °F 70.0 °F 67% 29.97 in 10.0 mi South 8.1 mph - N/A   Scattered Clouds
3:53 PM 82.9 °F 87.0 °F 70.0 °F 65% 29.95 in 10.0 mi SSW 8.1 mph - N/A   Clear
4:53 PM 84.0 °F 87.8 °F 69.1 °F 61% 29.94 in 10.0 mi SSW 6.9 mph - N/A   Clear
5:53 PM 82.9 °F 86.5 °F 69.1 °F 63% 29.93 in 10.0 mi South 4.6 mph - N/A   Clear
6:53 PM 79.0 °F - 70.0 °F 74% 29.93 in 10.0 mi Calm Calm - N/A   Clear
7:53 PM 75.0 °F - 70.0 °F 84% 29.94 in 10.0 mi Calm Calm - N/A   Clear
8:53 PM 75.9 °F - 70.0 °F 82% 29.94 in 10.0 mi SE 3.5 mph - N/A   Clear
9:53 PM 75.0 °F - 70.0 °F 84% 29.96 in 10.0 mi Calm Calm - N/A   Clear
11:53 PM 73.9 °F - 70.0 °F 87% 29.96 in 10.0 mi Calm Calm - N/A   Clear